Погода в Таифе

Саудовская Аравия     21°16′11″N   40°24′57″E
темп.,
°C
ветер,
м/с
пор.,
м/с
влажн.,
%
обл.,
%
осадки,
мм/ч
давл.,
гПа
погр.,
м
16 апреля, пт
пт1600:00+20вюв2352100 0.3 1014346
03:00+18вюв6665100 0.4 1013442
06:00+17юв2369100 0.1 1013230
09:00+22ююв234771 0.1 1014792
12:00+26ююз763099 0.0 10132415
15:00+26ююз5735100 0.9 10102207
18:00+16в997224 6.4 1015489
21:00+18вюв57614 6.6 1015397
17 апреля, сб
сб1700:00+18вюв57483 0.0 1015326
03:00+17вюв35575 0.6 1014202
06:00+17юв24580 0.6 1015153
09:00+22ююв35390 0.6 1015856
12:00+25ююз76321 0.1 10142039
15:00+26ююз442849 0.1 10122707
18:00+24в123581 0.3 10121370
21:00+18юв22622 2.0 1017205
18 апреля, вс
вс1800:00+18вюв35570 1.8 1017196
03:00+19вюв24461 2.1 1015173
06:00+18всв34490 0.3 1017153
09:00+20вюв34450 0.3 1017444
12:00+25ю24290 0.0 10152690
15:00+26юз542794 0.2 10113029
18:00+14в2774100 38.1 1022318
21:00+20вюв2438100 42.1 1017196
19 апреля, пн
пн1900:00+20в464566 0.0 1018323
03:00+20юв254112 0.0 1016226
06:00+20вюв36425 0.0 1017308
09:00+23юв44312 0.0 1017682
12:00+26ююз33212 0.0 10152957
15:00+27юз442388 0.0 10143103
18:00+25зсз2230100 0.1 10141978
21:00+23юв22410 0.2 1016640
20 апреля, вт
вт2000:00+22всв47423 0.0 1016691
03:00+21в47470 0.0 1015323
06:00+21ююв38300 0.0 1016355
09:00+25юв56160 0.0 10161581
12:00+27вюв54130 0.0 10142887
15:00+28всв44131 0.0 10123471
18:00+27св76142 0.0 10132286
21:00+24с352752 0.0 1014833